Year,Month,Day,Hour,Minute,Value (Times are PST for windgust in km/hr)
2017,09,06,01,03,4.80
2017,09,06,01,04,1.60
2017,09,06,01,06,4.80
2017,09,06,01,07,6.40
2017,09,06,01,08,4.80
2017,09,06,01,09,4.80
2017,09,06,01,10,6.40
2017,09,06,01,11,8.10
2017,09,06,01,12,8.10
2017,09,06,01,13,3.20
2017,09,06,01,14,4.80
2017,09,06,01,15,6.40
2017,09,06,01,16,8.10
2017,09,06,01,17,6.40
2017,09,06,01,18,3.20
2017,09,06,01,19,1.60
2017,09,06,01,20,1.60
2017,09,06,01,21,4.80
2017,09,06,01,22,4.80
2017,09,06,01,23,6.40
2017,09,06,01,24,6.40
2017,09,06,01,25,8.10
2017,09,06,01,26,3.20
2017,09,06,01,27,3.20
2017,09,06,01,28,4.80
2017,09,06,01,29,4.80
2017,09,06,01,30,1.60
2017,09,06,01,31,3.20
2017,09,06,01,32,3.20
2017,09,06,01,33,4.80
2017,09,06,01,34,3.20
2017,09,06,01,35,3.20
2017,09,06,01,36,6.40
2017,09,06,01,37,6.40
2017,09,06,01,38,3.20
2017,09,06,01,39,4.80
2017,09,06,01,40,4.80
2017,09,06,01,41,4.80
2017,09,06,01,42,3.20
2017,09,06,01,43,1.60
2017,09,06,01,44,3.20
2017,09,06,01,45,1.60
2017,09,06,01,46,4.80
2017,09,06,01,47,3.20
2017,09,06,01,48,3.20
2017,09,06,01,49,3.20
2017,09,06,01,50,3.20
2017,09,06,01,51,3.20
2017,09,06,01,52,4.80
2017,09,06,01,53,8.10
2017,09,06,01,54,6.40
2017,09,06,01,55,12.90
2017,09,06,01,56,9.60
2017,09,06,01,57,3.20
2017,09,06,01,58,4.80
2017,09,06,01,59,4.80
2017,09,06,02,00,3.20
2017,09,06,02,01,3.20
2017,09,06,02,02,4.80
2017,09,06,02,03,11.30
2017,09,06,02,04,6.40
2017,09,06,02,05,8.10
2017,09,06,02,06,6.40
2017,09,06,02,07,12.90
2017,09,06,02,08,8.10
2017,09,06,02,09,6.40
2017,09,06,02,10,12.90
2017,09,06,02,11,16.10
2017,09,06,02,12,9.60
2017,09,06,02,13,11.30
2017,09,06,02,14,9.60
2017,09,06,02,15,9.60
2017,09,06,02,16,17.70
2017,09,06,02,17,16.10
2017,09,06,02,18,9.60
2017,09,06,02,19,3.20
2017,09,06,02,20,6.40
2017,09,06,02,21,20.90
2017,09,06,02,22,17.70
2017,09,06,02,23,14.50
2017,09,06,02,24,19.30
2017,09,06,02,25,12.90
2017,09,06,02,26,14.50
2017,09,06,02,27,9.60
2017,09,06,02,28,20.90
2017,09,06,02,29,9.60
2017,09,06,02,30,12.90
2017,09,06,02,31,17.70
2017,09,06,02,32,8.10
2017,09,06,02,33,12.90
2017,09,06,02,34,22.50
2017,09,06,02,35,17.70
2017,09,06,02,36,12.90
2017,09,06,02,37,17.70
2017,09,06,02,38,22.50
2017,09,06,02,39,27.40
2017,09,06,02,40,8.10
2017,09,06,02,41,12.90
2017,09,06,02,42,9.60
2017,09,06,02,43,11.30
2017,09,06,02,44,9.60
2017,09,06,02,45,12.90
2017,09,06,02,46,14.50
2017,09,06,02,47,16.10
2017,09,06,02,48,9.60
2017,09,06,02,49,9.60
2017,09,06,02,50,9.60
2017,09,06,02,51,16.10
2017,09,06,02,52,11.30
2017,09,06,02,53,11.30
2017,09,06,02,54,6.40
2017,09,06,02,55,11.30
2017,09,06,02,56,6.40
2017,09,06,02,57,12.90
2017,09,06,02,58,11.30
2017,09,06,02,59,16.10
2017,09,06,03,00,11.30
2017,09,06,03,01,12.90
2017,09,06,03,02,14.50
2017,09,06,03,03,14.50
2017,09,06,03,04,16.10
2017,09,06,03,05,8.10
2017,09,06,03,06,17.70
2017,09,06,03,07,14.50
2017,09,06,03,08,14.50
2017,09,06,03,09,16.10
2017,09,06,03,10,12.90
2017,09,06,03,11,16.10
2017,09,06,03,12,11.30
2017,09,06,03,13,3.20
2017,09,06,03,14,14.50
2017,09,06,03,15,16.10
2017,09,06,03,16,12.90
2017,09,06,03,17,12.90
2017,09,06,03,18,6.40
2017,09,06,03,19,9.60
2017,09,06,03,20,12.90
2017,09,06,03,21,9.60
2017,09,06,03,22,8.10
2017,09,06,03,23,19.30
2017,09,06,03,24,12.90
2017,09,06,03,25,8.10
2017,09,06,03,26,19.30
2017,09,06,03,27,12.90
2017,09,06,03,28,6.40
2017,09,06,03,29,6.40
2017,09,06,03,30,8.10
2017,09,06,03,31,6.40
2017,09,06,03,32,16.10
2017,09,06,03,33,16.10
2017,09,06,03,34,11.30
2017,09,06,03,35,6.40
2017,09,06,03,36,8.10
2017,09,06,03,37,11.30
2017,09,06,03,38,14.50
2017,09,06,03,39,9.60
2017,09,06,03,40,14.50
2017,09,06,03,41,12.90
2017,09,06,03,42,6.40
2017,09,06,03,43,6.40
2017,09,06,03,44,11.30
2017,09,06,03,45,12.90
2017,09,06,03,46,4.80
2017,09,06,03,47,9.60
2017,09,06,03,48,17.70
2017,09,06,03,49,20.90
2017,09,06,03,50,19.30
2017,09,06,03,51,19.30
2017,09,06,03,52,14.50
2017,09,06,03,53,11.30
2017,09,06,03,54,11.30
2017,09,06,03,55,12.90
2017,09,06,03,56,11.30
2017,09,06,03,57,16.10
2017,09,06,03,58,12.90
2017,09,06,03,59,11.30
2017,09,06,04,00,11.30
2017,09,06,04,01,12.90
2017,09,06,04,02,14.50
2017,09,06,04,03,16.10
2017,09,06,04,04,14.50
2017,09,06,04,05,16.10
2017,09,06,04,06,11.30
2017,09,06,04,07,9.60
2017,09,06,04,08,16.10
2017,09,06,04,09,17.70
2017,09,06,04,10,16.10
2017,09,06,04,11,12.90
2017,09,06,04,12,11.30
2017,09,06,04,13,12.90
2017,09,06,04,14,11.30
2017,09,06,04,15,14.50
2017,09,06,04,16,14.50
2017,09,06,04,17,11.30
2017,09,06,04,18,9.60
2017,09,06,04,19,8.10
2017,09,06,04,20,9.60
2017,09,06,04,21,6.40
2017,09,06,04,22,8.10
2017,09,06,04,23,6.40
2017,09,06,04,24,8.10
2017,09,06,04,25,11.30
2017,09,06,04,26,12.90
2017,09,06,04,27,12.90
2017,09,06,04,28,11.30
2017,09,06,04,29,12.90
2017,09,06,04,30,11.30
2017,09,06,04,31,4.80
2017,09,06,04,32,8.10
2017,09,06,04,33,9.60
2017,09,06,04,34,4.80
2017,09,06,04,35,17.70
2017,09,06,04,36,12.90
2017,09,06,04,37,6.40
2017,09,06,04,38,11.30
2017,09,06,04,39,14.50
2017,09,06,04,40,12.90
2017,09,06,04,41,11.30
2017,09,06,04,42,8.10
2017,09,06,04,43,11.30
2017,09,06,04,44,12.90
2017,09,06,04,45,11.30
2017,09,06,04,46,9.60
2017,09,06,04,47,14.50
2017,09,06,04,48,11.30
2017,09,06,04,49,9.60
2017,09,06,04,50,8.10
2017,09,06,04,51,11.30
2017,09,06,04,52,9.60
2017,09,06,04,53,8.10
2017,09,06,04,54,12.90
2017,09,06,04,55,11.30
2017,09,06,04,56,8.10
2017,09,06,04,57,6.40
2017,09,06,04,58,4.80
2017,09,06,04,59,4.80
2017,09,06,05,00,3.20
2017,09,06,05,03,1.60
2017,09,06,07,36,3.20
2017,09,06,07,37,4.80
2017,09,06,07,38,3.20
2017,09,06,07,39,3.20
2017,09,06,07,40,3.20
2017,09,06,07,41,1.60
2017,09,06,07,42,1.60
2017,09,06,09,17,6.40
2017,09,06,09,18,4.80
2017,09,06,09,19,3.20
2017,09,06,09,20,1.60
2017,09,06,09,21,1.60
2017,09,06,09,22,1.60
2017,09,06,09,23,3.20
2017,09,06,09,24,3.20
2017,09,06,09,25,3.20
2017,09,06,09,26,3.20
2017,09,06,09,27,4.80
2017,09,06,09,28,3.20
2017,09,06,09,31,1.60
2017,09,06,09,32,1.60
2017,09,06,09,33,1.60
2017,09,06,09,34,1.60
2017,09,06,09,35,6.40
2017,09,06,09,36,6.40
2017,09,06,09,37,4.80
2017,09,06,09,38,4.80
2017,09,06,09,39,4.80
2017,09,06,09,40,4.80
2017,09,06,09,41,4.80
2017,09,06,09,42,4.80
2017,09,06,09,43,4.80
2017,09,06,09,44,4.80
2017,09,06,09,45,6.40
2017,09,06,09,46,6.40
2017,09,06,09,47,6.40
2017,09,06,09,48,6.40
2017,09,06,09,49,6.40
2017,09,06,09,50,4.80
2017,09,06,09,51,6.40
2017,09,06,09,52,6.40
2017,09,06,09,53,4.80
2017,09,06,09,54,6.40
2017,09,06,09,55,4.80
2017,09,06,09,56,4.80
2017,09,06,09,57,6.40
2017,09,06,09,58,3.20
2017,09,06,09,59,1.60
2017,09,06,10,00,3.20
2017,09,06,10,01,4.80
2017,09,06,10,02,3.20
2017,09,06,10,04,1.60
2017,09,06,10,05,3.20
2017,09,06,10,06,1.60
2017,09,06,10,07,3.20
2017,09,06,10,08,1.60
2017,09,06,10,09,4.80
2017,09,06,10,10,3.20
2017,09,06,10,11,8.10
2017,09,06,10,12,4.80
2017,09,06,10,13,4.80
2017,09,06,10,14,3.20
2017,09,06,10,15,4.80
2017,09,06,10,16,3.20
2017,09,06,10,17,6.40
2017,09,06,10,18,6.40
2017,09,06,10,19,6.40
2017,09,06,10,20,8.10
2017,09,06,10,21,4.80
2017,09,06,10,22,6.40
2017,09,06,10,23,4.80
2017,09,06,10,24,4.80
2017,09,06,10,25,4.80
2017,09,06,10,26,4.80
2017,09,06,10,27,3.20
2017,09,06,10,28,4.80
2017,09,06,10,29,4.80
2017,09,06,10,30,3.20
2017,09,06,10,31,1.60
2017,09,06,10,32,3.20
2017,09,06,10,33,6.40
2017,09,06,10,34,6.40
2017,09,06,10,35,6.40
2017,09,06,10,36,4.80
2017,09,06,10,37,3.20
2017,09,06,10,38,1.60
2017,09,06,10,39,3.20
2017,09,06,10,40,4.80
2017,09,06,10,41,3.20
2017,09,06,10,42,1.60
2017,09,06,10,43,3.20
2017,09,06,10,44,1.60
2017,09,06,10,45,6.40
2017,09,06,10,46,4.80
2017,09,06,10,47,3.20
2017,09,06,10,48,4.80
2017,09,06,10,49,1.60
2017,09,06,10,50,3.20
2017,09,06,10,51,1.60
2017,09,06,10,52,1.60
2017,09,06,10,53,1.60
2017,09,06,10,54,3.20
2017,09,06,10,55,3.20
2017,09,06,10,56,3.20
2017,09,06,10,57,1.60
2017,09,06,10,58,3.20
2017,09,06,10,59,3.20
2017,09,06,11,00,3.20
2017,09,06,11,01,6.40
2017,09,06,11,02,3.20
2017,09,06,11,03,3.20
2017,09,06,11,04,4.80
2017,09,06,11,05,6.40
2017,09,06,11,06,3.20
2017,09,06,11,08,3.20
2017,09,06,11,09,4.80
2017,09,06,11,10,4.80
2017,09,06,11,11,3.20
2017,09,06,11,12,4.80
2017,09,06,11,13,4.80
2017,09,06,11,14,3.20
2017,09,06,11,15,4.80
2017,09,06,11,16,4.80
2017,09,06,11,17,8.10
2017,09,06,11,18,4.80
2017,09,06,11,19,4.80
2017,09,06,11,20,3.20
2017,09,06,11,21,4.80
2017,09,06,11,22,3.20
2017,09,06,11,23,4.80
2017,09,06,11,24,3.20
2017,09,06,11,25,4.80
2017,09,06,11,26,4.80
2017,09,06,11,27,6.40
2017,09,06,11,28,4.80
2017,09,06,11,29,4.80
2017,09,06,11,30,1.60
2017,09,06,11,31,3.20
2017,09,06,11,32,3.20
2017,09,06,11,33,3.20
2017,09,06,11,34,4.80
2017,09,06,11,35,4.80
2017,09,06,11,36,4.80
2017,09,06,11,37,6.40
2017,09,06,11,38,3.20
2017,09,06,11,39,4.80
2017,09,06,11,40,8.10
2017,09,06,11,41,8.10
2017,09,06,11,42,8.10
2017,09,06,11,43,9.60
2017,09,06,11,44,14.50
2017,09,06,11,45,12.90
2017,09,06,11,46,17.70
2017,09,06,11,47,14.50
2017,09,06,11,48,14.50
2017,09,06,11,49,11.30
2017,09,06,11,50,6.40
2017,09,06,11,51,12.90
2017,09,06,11,52,8.10
2017,09,06,11,53,11.30
2017,09,06,11,54,17.70
2017,09,06,11,55,22.50
2017,09,06,11,56,8.10
2017,09,06,11,57,11.30
2017,09,06,11,58,17.70
2017,09,06,11,59,14.50
2017,09,06,12,00,19.30
2017,09,06,12,01,24.20
2017,09,06,12,02,22.50
2017,09,06,12,03,27.40
2017,09,06,12,04,11.30
2017,09,06,12,05,17.70
2017,09,06,12,06,20.90
2017,09,06,12,07,25.70
2017,09,06,12,08,27.40
2017,09,06,12,09,27.40
2017,09,06,12,10,22.50
2017,09,06,12,11,25.70
2017,09,06,12,12,30.60
2017,09,06,12,13,22.50
2017,09,06,12,14,16.10
2017,09,06,12,15,12.90
2017,09,06,12,16,16.10
2017,09,06,12,17,16.10
2017,09,06,12,18,19.30
2017,09,06,12,19,27.40
2017,09,06,12,20,14.50
2017,09,06,12,21,17.70
2017,09,06,12,22,24.20
2017,09,06,12,23,19.30
2017,09,06,12,24,25.70
2017,09,06,12,25,27.40
2017,09,06,12,26,27.40
2017,09,06,12,27,29.00
2017,09,06,12,28,14.50
2017,09,06,12,29,20.90
2017,09,06,12,30,16.10
2017,09,06,12,31,25.70
2017,09,06,12,32,24.20
2017,09,06,12,33,30.60
2017,09,06,12,34,27.40
2017,09,06,12,35,14.50
2017,09,06,12,36,14.50
2017,09,06,12,37,20.90
2017,09,06,12,38,20.90
2017,09,06,12,39,22.50
2017,09,06,12,40,20.90
2017,09,06,12,41,22.50
2017,09,06,12,42,17.70
2017,09,06,12,43,20.90
2017,09,06,12,44,17.70
2017,09,06,12,45,22.50
2017,09,06,12,46,20.90
2017,09,06,12,47,19.30
2017,09,06,12,48,22.50
2017,09,06,12,49,14.50
2017,09,06,12,50,22.50
2017,09,06,12,51,14.50
2017,09,06,12,52,19.30
2017,09,06,12,53,16.10
2017,09,06,12,54,17.70
2017,09,06,12,55,19.30
2017,09,06,12,56,11.30
2017,09,06,12,57,20.90
2017,09,06,12,58,16.10
2017,09,06,12,59,19.30
2017,09,06,13,00,12.90
2017,09,06,13,01,9.60
2017,09,06,13,02,19.30
2017,09,06,13,03,14.50
2017,09,06,13,04,12.90
2017,09,06,13,05,12.90
2017,09,06,13,06,12.90
2017,09,06,13,07,19.30
2017,09,06,13,08,17.70
2017,09,06,13,09,19.30
2017,09,06,13,10,9.60
2017,09,06,13,11,16.10
2017,09,06,13,12,17.70
2017,09,06,13,13,12.90
2017,09,06,13,14,14.50
2017,09,06,13,15,14.50
2017,09,06,13,16,14.50
2017,09,06,13,17,11.30
2017,09,06,13,18,12.90
2017,09,06,13,19,8.10
2017,09,06,13,20,8.10
2017,09,06,13,21,14.50
2017,09,06,13,22,16.10
2017,09,06,13,23,9.60
2017,09,06,13,24,14.50
2017,09,06,13,25,16.10
2017,09,06,13,26,12.90
2017,09,06,13,27,16.10
2017,09,06,13,28,11.30
2017,09,06,13,29,14.50
2017,09,06,13,30,16.10
2017,09,06,13,31,11.30
2017,09,06,13,32,6.40
2017,09,06,13,33,17.70
2017,09,06,13,34,14.50
2017,09,06,13,35,9.60
2017,09,06,13,36,19.30
2017,09,06,13,37,17.70
2017,09,06,13,38,14.50
2017,09,06,13,39,14.50
2017,09,06,13,40,12.90
2017,09,06,13,41,12.90
2017,09,06,13,42,12.90
2017,09,06,13,43,11.30
2017,09,06,13,44,11.30
2017,09,06,13,45,14.50
2017,09,06,13,46,17.70
2017,09,06,13,47,17.70
2017,09,06,13,48,12.90
2017,09,06,13,49,14.50
2017,09,06,13,50,14.50
2017,09,06,13,51,9.60
2017,09,06,13,52,4.80
2017,09,06,13,53,12.90
2017,09,06,13,54,9.60
2017,09,06,13,55,19.30
2017,09,06,13,56,12.90
2017,09,06,13,57,16.10
2017,09,06,13,58,19.30
2017,09,06,13,59,16.10
2017,09,06,14,00,16.10
2017,09,06,14,01,17.70
2017,09,06,14,02,9.60
2017,09,06,14,03,12.90
2017,09,06,14,04,16.10
2017,09,06,14,05,14.50
2017,09,06,14,06,17.70
2017,09,06,14,07,24.20
2017,09,06,14,08,16.10
2017,09,06,14,09,14.50
2017,09,06,14,10,14.50
2017,09,06,14,11,14.50
2017,09,06,14,12,16.10
2017,09,06,14,13,19.30
2017,09,06,14,14,25.70
2017,09,06,14,15,19.30
2017,09,06,14,16,9.60
2017,09,06,14,17,22.50
2017,09,06,14,18,25.70
2017,09,06,14,19,14.50
2017,09,06,14,20,14.50
2017,09,06,14,21,12.90
2017,09,06,14,22,12.90
2017,09,06,14,23,9.60
2017,09,06,14,24,16.10
2017,09,06,14,25,20.90
2017,09,06,14,26,8.10
2017,09,06,14,27,19.30
2017,09,06,14,28,22.50
2017,09,06,14,29,11.30
2017,09,06,14,30,20.90
2017,09,06,14,31,20.90
2017,09,06,14,32,17.70
2017,09,06,14,33,16.10
2017,09,06,14,34,14.50
2017,09,06,14,35,17.70
2017,09,06,14,36,16.10
2017,09,06,14,37,27.40
2017,09,06,14,38,17.70
2017,09,06,14,39,12.90
2017,09,06,14,40,14.50
2017,09,06,14,41,22.50
2017,09,06,14,42,24.20
2017,09,06,14,43,17.70
2017,09,06,14,44,17.70
2017,09,06,14,45,16.10
2017,09,06,14,46,17.70
2017,09,06,14,47,12.90
2017,09,06,14,48,8.10
2017,09,06,14,49,11.30
2017,09,06,14,50,17.70
2017,09,06,14,51,16.10
2017,09,06,14,52,16.10
2017,09,06,14,53,16.10
2017,09,06,14,54,14.50
2017,09,06,14,55,19.30
2017,09,06,14,56,20.90
2017,09,06,14,57,25.70
2017,09,06,14,58,27.40
2017,09,06,14,59,19.30
2017,09,06,15,00,16.10
2017,09,06,15,01,14.50
2017,09,06,15,02,17.70
2017,09,06,15,03,24.20
2017,09,06,15,04,9.60
2017,09,06,15,05,14.50
2017,09,06,15,06,3.20
2017,09,06,15,07,11.30
2017,09,06,15,08,14.50
2017,09,06,15,09,12.90
2017,09,06,15,10,14.50
2017,09,06,15,11,16.10
2017,09,06,15,12,12.90
2017,09,06,15,13,19.30
2017,09,06,15,14,14.50
2017,09,06,15,15,16.10
2017,09,06,15,16,8.10
2017,09,06,15,17,19.30
2017,09,06,15,18,16.10
2017,09,06,15,19,6.40
2017,09,06,15,20,14.50
2017,09,06,15,21,8.10
2017,09,06,15,22,11.30
2017,09,06,15,23,14.50
2017,09,06,15,24,8.10
2017,09,06,15,25,12.90
2017,09,06,15,26,9.60
2017,09,06,15,27,11.30
2017,09,06,15,28,8.10
2017,09,06,15,29,6.40
2017,09,06,15,30,4.80
2017,09,06,15,31,8.10
2017,09,06,15,32,11.30
2017,09,06,15,33,8.10
2017,09,06,15,34,12.90
2017,09,06,15,35,11.30
2017,09,06,15,36,8.10
2017,09,06,15,37,4.80
2017,09,06,15,38,8.10
2017,09,06,15,39,6.40
2017,09,06,15,40,6.40
2017,09,06,15,41,8.10
2017,09,06,15,42,12.90
2017,09,06,15,43,6.40
2017,09,06,15,44,4.80
2017,09,06,15,45,3.20
2017,09,06,15,46,6.40
2017,09,06,15,47,11.30
2017,09,06,15,48,8.10
2017,09,06,15,49,8.10
2017,09,06,15,50,6.40
2017,09,06,15,51,4.80
2017,09,06,15,52,9.60
2017,09,06,15,53,8.10
2017,09,06,15,54,8.10
2017,09,06,15,55,4.80
2017,09,06,15,56,4.80
2017,09,06,15,57,1.60
2017,09,06,15,58,9.60
2017,09,06,15,59,6.40
2017,09,06,16,00,1.60
2017,09,06,16,01,6.40
2017,09,06,16,02,9.60
2017,09,06,16,03,9.60
2017,09,06,16,04,8.10
2017,09,06,16,05,6.40
2017,09,06,16,06,6.40
2017,09,06,16,07,6.40
2017,09,06,16,08,9.60
2017,09,06,16,09,9.60
2017,09,06,16,10,6.40
2017,09,06,16,11,8.10
2017,09,06,16,12,6.40
2017,09,06,16,13,6.40
2017,09,06,16,14,8.10
2017,09,06,16,15,4.80
2017,09,06,16,16,8.10
2017,09,06,16,17,4.80
2017,09,06,16,18,4.80
2017,09,06,16,19,6.40
2017,09,06,16,20,3.20
2017,09,06,16,21,8.10
2017,09,06,16,22,11.30
2017,09,06,16,23,6.40
2017,09,06,16,24,4.80
2017,09,06,16,25,4.80
2017,09,06,16,26,9.60
2017,09,06,16,27,8.10
2017,09,06,16,28,8.10
2017,09,06,16,29,6.40
2017,09,06,16,30,4.80
2017,09,06,16,31,4.80
2017,09,06,16,32,6.40
2017,09,06,16,33,6.40
2017,09,06,16,34,8.10
2017,09,06,16,35,9.60
2017,09,06,16,36,6.40
2017,09,06,16,37,14.50
2017,09,06,16,38,14.50
2017,09,06,16,39,14.50
2017,09,06,16,40,16.10
2017,09,06,16,41,16.10
2017,09,06,16,42,14.50
2017,09,06,16,43,12.90
2017,09,06,16,44,19.30
2017,09,06,16,45,12.90
2017,09,06,16,46,16.10
2017,09,06,16,47,9.60
2017,09,06,16,48,14.50
2017,09,06,16,49,14.50
2017,09,06,16,50,11.30
2017,09,06,16,51,11.30
2017,09,06,16,52,11.30
2017,09,06,16,53,14.50
2017,09,06,16,54,8.10
2017,09,06,16,55,6.40
2017,09,06,16,56,4.80
2017,09,06,16,57,3.20
2017,09,06,16,58,8.10
2017,09,06,16,59,6.40
2017,09,06,17,00,4.80
2017,09,06,17,01,9.60
2017,09,06,17,02,12.90
2017,09,06,17,03,12.90
2017,09,06,17,04,9.60
2017,09,06,17,05,8.10
2017,09,06,17,06,4.80
2017,09,06,17,07,6.40
2017,09,06,17,08,9.60
2017,09,06,17,09,6.40
2017,09,06,17,10,14.50
2017,09,06,17,11,16.10
2017,09,06,17,12,22.50
2017,09,06,17,13,14.50
2017,09,06,17,14,9.60
2017,09,06,17,15,11.30
2017,09,06,17,16,8.10
2017,09,06,17,17,14.50
2017,09,06,17,18,11.30
2017,09,06,17,19,8.10
2017,09,06,17,20,17.70
2017,09,06,17,21,25.70
2017,09,06,17,22,19.30
2017,09,06,17,23,25.70
2017,09,06,17,24,16.10
2017,09,06,17,25,25.70
2017,09,06,17,26,20.90
2017,09,06,17,27,29.00
2017,09,06,17,28,17.70
2017,09,06,17,29,14.50
2017,09,06,17,30,17.70
2017,09,06,17,31,22.50
2017,09,06,17,32,17.70
2017,09,06,17,33,20.90
2017,09,06,17,34,16.10
2017,09,06,17,35,12.90
2017,09,06,17,36,14.50
2017,09,06,17,37,9.60
2017,09,06,17,38,17.70
2017,09,06,17,39,14.50
2017,09,06,17,40,9.60
2017,09,06,17,41,9.60
2017,09,06,17,42,16.10
2017,09,06,17,43,12.90
2017,09,06,17,44,9.60
2017,09,06,17,45,17.70
2017,09,06,17,46,9.60
2017,09,06,17,47,14.50
2017,09,06,17,48,12.90
2017,09,06,17,49,17.70
2017,09,06,17,50,6.40
2017,09,06,17,51,9.60
2017,09,06,17,52,14.50
2017,09,06,17,53,14.50
2017,09,06,17,54,12.90
2017,09,06,17,55,16.10
2017,09,06,17,56,12.90
2017,09,06,17,57,6.40
2017,09,06,17,58,6.40
2017,09,06,17,59,14.50
2017,09,06,18,00,11.30
2017,09,06,18,01,6.40
2017,09,06,18,02,11.30
2017,09,06,18,03,11.30
2017,09,06,18,04,9.60
2017,09,06,18,05,11.30
2017,09,06,18,06,14.50
2017,09,06,18,07,14.50
2017,09,06,18,08,14.50
2017,09,06,18,09,20.90
2017,09,06,18,10,11.30
2017,09,06,18,11,11.30
2017,09,06,18,12,16.10
2017,09,06,18,13,16.10
2017,09,06,18,14,16.10
2017,09,06,18,15,14.50
2017,09,06,18,16,12.90
2017,09,06,18,17,11.30
2017,09,06,18,18,16.10
2017,09,06,18,19,17.70
2017,09,06,18,20,6.40
2017,09,06,18,21,9.60
2017,09,06,18,22,6.40
2017,09,06,18,23,8.10
2017,09,06,18,24,11.30
2017,09,06,18,25,12.90
2017,09,06,18,26,14.50
2017,09,06,18,27,6.40
2017,09,06,18,28,11.30
2017,09,06,18,29,14.50
2017,09,06,18,30,9.60
2017,09,06,18,31,11.30
2017,09,06,18,32,14.50
2017,09,06,18,33,8.10
2017,09,06,18,34,8.10
2017,09,06,18,35,8.10
2017,09,06,18,36,8.10
2017,09,06,18,37,9.60
2017,09,06,18,38,9.60
2017,09,06,18,39,9.60
2017,09,06,18,40,11.30
2017,09,06,18,41,12.90
2017,09,06,18,42,16.10
2017,09,06,18,43,12.90
2017,09,06,18,44,9.60
2017,09,06,18,45,11.30
2017,09,06,18,46,11.30
2017,09,06,18,47,12.90
2017,09,06,18,48,8.10
2017,09,06,18,49,8.10
2017,09,06,18,50,12.90
2017,09,06,18,51,8.10
2017,09,06,18,52,8.10
2017,09,06,18,53,9.60
2017,09,06,18,54,9.60
2017,09,06,18,55,9.60
2017,09,06,18,56,6.40
2017,09,06,18,57,8.10
2017,09,06,18,58,4.80
2017,09,06,18,59,3.20
2017,09,06,19,00,4.80
2017,09,06,19,01,3.20
2017,09,06,19,02,1.60
2017,09,06,19,03,1.60
2017,09,06,19,04,1.60
2017,09,06,19,05,1.60
2017,09,06,19,07,1.60
2017,09,06,19,08,1.60
2017,09,06,19,09,3.20
2017,09,06,19,10,3.20
2017,09,06,19,11,3.20
2017,09,06,19,12,1.60
2017,09,06,19,13,1.60
2017,09,06,19,36,3.20
2017,09,06,19,37,6.40
2017,09,06,19,38,6.40
2017,09,06,19,39,6.40
2017,09,06,19,40,4.80
2017,09,06,19,41,3.20
2017,09,06,19,42,6.40
2017,09,06,19,43,8.10
2017,09,06,19,44,9.60
2017,09,06,19,45,14.50
2017,09,06,19,46,12.90
2017,09,06,19,47,16.10
2017,09,06,19,48,14.50
2017,09,06,19,49,16.10
2017,09,06,19,50,11.30
2017,09,06,19,51,14.50
2017,09,06,19,52,12.90
2017,09,06,19,53,9.60
2017,09,06,19,54,11.30
2017,09,06,19,55,9.60
2017,09,06,19,56,9.60
2017,09,06,19,57,4.80
2017,09,06,19,58,3.20
2017,09,06,19,59,3.20
2017,09,06,20,00,4.80
2017,09,06,20,01,8.10
2017,09,06,20,02,1.60
2017,09,06,20,09,3.20
2017,09,06,20,10,3.20
2017,09,06,20,11,3.20
2017,09,06,20,12,3.20
2017,09,06,20,13,3.20
2017,09,06,20,14,4.80
2017,09,06,20,15,3.20
2017,09,06,20,16,1.60
2017,09,06,20,23,3.20
2017,09,06,20,24,3.20
2017,09,06,20,25,1.60
2017,09,06,20,26,3.20
2017,09,06,20,27,3.20
2017,09,06,20,28,3.20
2017,09,06,20,45,6.40
2017,09,06,20,46,8.10
2017,09,06,20,47,11.30
2017,09,06,20,48,11.30
2017,09,06,20,49,8.10
2017,09,06,20,50,6.40
2017,09,06,20,51,9.60
2017,09,06,20,52,6.40
2017,09,06,20,53,4.80
2017,09,06,20,54,1.60
2017,09,06,20,55,3.20
2017,09,06,20,56,4.80
2017,09,06,20,57,4.80
2017,09,06,20,58,3.20
2017,09,06,20,59,3.20
2017,09,06,21,00,1.60
2017,09,06,21,01,3.20
2017,09,06,21,02,4.80
2017,09,06,21,03,4.80
2017,09,06,21,04,3.20
2017,09,06,21,05,6.40
2017,09,06,21,06,6.40
2017,09,06,21,07,4.80
2017,09,06,21,08,9.60
2017,09,06,21,09,9.60
2017,09,06,21,10,8.10
2017,09,06,21,11,4.80
2017,09,06,21,12,6.40
2017,09,06,21,13,6.40
2017,09,06,21,14,6.40
2017,09,06,21,15,3.20
2017,09,06,21,16,4.80
2017,09,06,21,17,8.10
2017,09,06,21,18,8.10
2017,09,06,21,19,4.80
2017,09,06,21,20,1.60
2017,09,06,21,21,4.80
2017,09,06,21,22,4.80
2017,09,06,21,23,3.20
2017,09,06,21,24,3.20
2017,09,06,21,25,3.20
2017,09,06,21,26,4.80
2017,09,06,21,27,3.20
2017,09,06,21,28,3.20
2017,09,06,21,29,1.60
2017,09,06,21,30,3.20
2017,09,06,21,31,8.10
2017,09,06,21,32,8.10
2017,09,06,21,33,3.20
2017,09,06,21,34,1.60
2017,09,06,21,35,3.20
2017,09,06,21,36,6.40
2017,09,06,21,37,6.40
2017,09,06,21,38,8.10
2017,09,06,21,39,4.80
2017,09,06,21,40,6.40
2017,09,06,21,41,4.80
2017,09,06,21,42,6.40
2017,09,06,21,43,4.80
2017,09,06,21,44,4.80
2017,09,06,21,45,8.10
2017,09,06,21,46,9.60
2017,09,06,21,47,11.30
2017,09,06,21,48,11.30
2017,09,06,21,49,6.40
2017,09,06,21,50,4.80
2017,09,06,21,51,11.30
2017,09,06,21,52,11.30
2017,09,06,21,53,19.30
2017,09,06,21,54,17.70
2017,09,06,21,55,8.10
2017,09,06,21,56,17.70
2017,09,06,21,57,32.20
2017,09,06,21,58,24.20
2017,09,06,21,59,27.40
2017,09,06,22,00,19.30
2017,09,06,22,01,30.60
2017,09,06,22,02,32.20
2017,09,06,22,03,33.80
2017,09,06,22,04,32.20
2017,09,06,22,05,29.00
2017,09,06,22,06,33.80
2017,09,06,22,07,29.00
2017,09,06,22,08,30.60
2017,09,06,22,09,38.60
2017,09,06,22,10,43.50
2017,09,06,22,11,33.80
2017,09,06,22,12,30.60
2017,09,06,22,13,33.80
2017,09,06,22,14,17.70
2017,09,06,22,15,19.30
2017,09,06,22,16,25.70
2017,09,06,22,17,17.70
2017,09,06,22,18,24.20
2017,09,06,22,19,27.40
2017,09,06,22,20,17.70
2017,09,06,22,21,20.90
2017,09,06,22,22,27.40
2017,09,06,22,23,20.90
2017,09,06,22,24,12.90
2017,09,06,22,25,19.30
2017,09,06,22,26,16.10
2017,09,06,22,27,9.60
2017,09,06,22,28,17.70
2017,09,06,22,29,19.30
2017,09,06,22,30,14.50
2017,09,06,22,31,14.50
2017,09,06,22,32,14.50
2017,09,06,22,33,29.00
2017,09,06,22,34,14.50
2017,09,06,22,35,14.50
2017,09,06,22,36,27.40
2017,09,06,22,37,20.90
2017,09,06,22,38,16.10
2017,09,06,22,39,14.50
2017,09,06,22,40,22.50
2017,09,06,22,41,11.30
2017,09,06,22,42,14.50
2017,09,06,22,43,14.50
2017,09,06,22,44,16.10
2017,09,06,22,45,19.30
2017,09,06,22,46,6.40
2017,09,06,22,47,8.10
2017,09,06,22,48,20.90
2017,09,06,22,49,22.50
2017,09,06,22,50,19.30
2017,09,06,22,51,14.50
2017,09,06,22,52,17.70
2017,09,06,22,53,20.90
2017,09,06,22,54,19.30
2017,09,06,22,55,12.90
2017,09,06,22,56,25.70
2017,09,06,22,57,16.10
2017,09,06,22,58,17.70
2017,09,06,22,59,19.30
2017,09,06,23,00,20.90
2017,09,06,23,01,20.90
2017,09,06,23,02,14.50
2017,09,06,23,03,16.10
2017,09,06,23,04,17.70
2017,09,06,23,05,12.90
2017,09,06,23,06,14.50
2017,09,06,23,07,11.30
2017,09,06,23,08,9.60
2017,09,06,23,09,6.40
2017,09,06,23,10,12.90
2017,09,06,23,11,14.50
2017,09,06,23,12,16.10
2017,09,06,23,13,19.30
2017,09,06,23,14,19.30
2017,09,06,23,15,24.20
2017,09,06,23,16,24.20
2017,09,06,23,17,14.50
2017,09,06,23,18,14.50
2017,09,06,23,19,11.30
2017,09,06,23,20,11.30
2017,09,06,23,21,4.80
2017,09,06,23,22,8.10
2017,09,06,23,23,11.30
2017,09,06,23,24,11.30
2017,09,06,23,25,14.50
2017,09,06,23,26,14.50
2017,09,06,23,27,16.10
2017,09,06,23,28,17.70
2017,09,06,23,29,14.50
2017,09,06,23,30,14.50
2017,09,06,23,31,16.10
2017,09,06,23,32,22.50
2017,09,06,23,33,17.70
2017,09,06,23,34,14.50
2017,09,06,23,35,4.80
2017,09,06,23,36,9.60
2017,09,06,23,37,9.60
2017,09,06,23,38,16.10
2017,09,06,23,39,6.40
2017,09,06,23,40,16.10
2017,09,06,23,41,14.50
2017,09,06,23,42,14.50
2017,09,06,23,43,9.60
2017,09,06,23,44,9.60
2017,09,06,23,45,9.60
2017,09,06,23,46,16.10
2017,09,06,23,47,9.60
2017,09,06,23,48,17.70
2017,09,06,23,49,19.30